| time (UTC) | temp C | wind direction | speed KPH | gust KPH | rain 1hr cm | rain 24hr cm | rain mn cm | humidity % | barometer mb |
| 20260510221025 | 39 | 321 | 4.8 | 17.7 | 0.00 | 0.00 | 0.00 | 7 | 1007.6 |
| 20260510220527 | 39 | 330 | 3.2 | 17.7 | 0.00 | 0.00 | 0.00 | 7 | 1007.7 |
| 20260510220041 | 39 | 306 | 4.8 | 16.1 | 0.00 | 0.00 | 0.00 | 8 | 1007.8 |
| 20260510215525 | 40 | 284 | 6.4 | 16.1 | 0.00 | 0.00 | 0.00 | 7 | 1007.8 |
| 20260510215024 | 39 | 329 | 6.4 | 19.3 | 0.00 | 0.00 | 0.00 | 8 | 1007.8 |
| 20260510214538 | 40 | 316 | 4.8 | 20.9 | 0.00 | 0.00 | 0.00 | 8 | 1007.9 |
| 20260510214027 | 39 | 298 | 9.7 | 20.9 | 0.00 | 0.00 | 0.00 | 8 | 1008.1 |
| 20260510213526 | 39 | 301 | 6.4 | 17.7 | 0.00 | 0.00 | 0.00 | 8 | 1007.9 |
| 20260510213037 | 40 | 307 | 3.2 | 17.7 | 0.00 | 0.00 | 0.00 | 8 | 1008.2 |
| 20260510212524 | 40 | 237 | 4.8 | 17.7 | 0.00 | 0.00 | 0.00 | 8 | 1008.2 |
| 20260510212026 | 39 | 227 | 4.8 | 17.7 | 0.00 | 0.00 | 0.00 | 8 | 1008.3 |
| 20260510211543 | 39 | 217 | 6.4 | 17.7 | 0.00 | 0.00 | 0.00 | 9 | 1008.6 |
| 20260510211024 | 38 | 311 | 4.8 | 17.7 | 0.00 | 0.00 | 0.00 | 8 | 1008.7 |
| 20260510210524 | 40 | 217 | 6.4 | 14.5 | 0.00 | 0.00 | 0.00 | 8 | 1008.7 |
| 20260510210039 | 39 | 271 | 1.6 | 14.5 | 0.00 | 0.00 | 0.00 | 9 | 1008.7 |
| 20260510205526 | 38 | 269 | 3.2 | 17.7 | 0.00 | 0.00 | 0.00 | 9 | 1008.7 |
| 20260510205025 | 38 | 300 | 9.7 | 17.7 | 0.00 | 0.00 | 0.00 | 9 | 1008.8 |
| 20260510204539 | 39 | 0 | 3.2 | 14.5 | 0.00 | 0.00 | 0.00 | 9 | 1008.9 |
| 20260510204024 | 39 | 0 | 3.2 | 11.3 | 0.00 | 0.00 | 0.00 | 9 | 1008.9 |
| 20260510203525 | 38 | 275 | 1.6 | 12.9 | 0.00 | 0.00 | 0.00 | 8 | 1009.0 |
| 20260510203039 | 38 | 271 | 4.8 | 14.5 | 0.00 | 0.00 | 0.00 | 9 | 1009.1 |
| 20260510202525 | 38 | 298 | 3.2 | 14.5 | 0.00 | 0.00 | 0.00 | 8 | 1009.2 |
| 20260510202025 | 39 | 295 | 3.2 | 14.5 | 0.00 | 0.00 | 0.00 | 8 | 1009.2 |
| 20260510201542 | 38 | 144 | 3.2 | 14.5 | 0.00 | 0.00 | 0.00 | 8 | 1009.2 |
| 20260510201023 | 38 | 250 | 4.8 | 12.9 | 0.00 | 0.00 | 0.00 | 8 | 1009.2 |
| 20260510200525 | 38 | 337 | 4.8 | 12.9 | 0.00 | 0.00 | 0.00 | 8 | 1009.2 |
| 20260510200042 | 38 | 298 | 1.6 | 8.0 | 0.00 | 0.00 | 0.00 | 9 | 1009.2 |
| 20260510195524 | 38 | 208 | 1.6 | 12.9 | 0.00 | 0.00 | 0.00 | 9 | 1009.3 |
| 20260510195022 | 38 | 72 | 3.2 | 12.9 | 0.00 | 0.00 | 0.00 | 9 | 1009.4 |
| 20260510194542 | 38 | 0 | 4.8 | 12.9 | 0.00 | 0.00 | 0.00 | 9 | 1009.4 |
| 20260510194023 | 38 | 217 | 1.6 | 11.3 | 0.00 | 0.00 | 0.00 | 9 | 1009.4 |
| 20260510193522 | 38 | 286 | 3.2 | 11.3 | 0.00 | 0.00 | 0.00 | 8 | 1009.5 |
| 20260510193041 | 38 | 0 | 0.0 | 9.7 | 0.00 | 0.00 | 0.00 | 9 | 1009.5 |
| 20260510192522 | 38 | 28 | 1.6 | 9.7 | 0.00 | 0.00 | 0.00 | 9 | 1009.5 |
| 20260510192024 | 37 | 185 | 3.2 | 9.7 | 0.00 | 0.00 | 0.00 | 10 | 1009.4 |
| 20260510191539 | 37 | 250 | 1.6 | 14.5 | 0.00 | 0.00 | 0.00 | 10 | 1009.5 |
| 20260510191022 | 37 | 321 | 4.8 | 14.5 | 0.00 | 0.00 | 0.00 | 10 | 1009.6 |
| 20260510190526 | 37 | 0 | 1.6 | 8.0 | 0.00 | 0.00 | 0.00 | 11 | 1009.7 |
| 20260510190043 | 37 | 326 | 1.6 | 12.9 | 0.00 | 0.00 | 0.00 | 10 | 1009.7 |
| 20260510185522 | 37 | 155 | 4.8 | 12.9 | 0.00 | 0.00 | 0.00 | 11 | 1009.7 |
| 20260510185022 | 37 | 0 | 3.2 | 11.3 | 0.00 | 0.00 | 0.00 | 10 | 1009.9 |
| 20260510184543 | 37 | 212 | 1.6 | 9.7 | 0.00 | 0.00 | 0.00 | 11 | 1009.7 |
| 20260510184025 | 36 | 0 | 3.2 | 11.3 | 0.00 | 0.00 | 0.00 | 11 | 1009.9 |
| 20260510183530 | 36 | 0 | 0.0 | 12.9 | 0.00 | 0.00 | 0.00 | 11 | 1009.8 |
| 20260510183040 | 37 | 249 | 3.2 | 12.9 | 0.00 | 0.00 | 0.00 | 11 | 1009.9 |
| 20260510182524 | 37 | 215 | 1.6 | 11.3 | 0.00 | 0.00 | 0.00 | 10 | 1009.9 |
| 20260510182024 | 36 | 0 | 1.6 | 9.7 | 0.00 | 0.00 | 0.00 | 9 | 1010.0 |
| 20260510181539 | 36 | 220 | 3.2 | 9.7 | 0.00 | 0.00 | 0.00 | 9 | 1010.0 |
| 20260510181023 | 36 | 250 | 1.6 | 9.7 | 0.00 | 0.00 | 0.00 | 10 | 1010.1 |
| 20260510180526 | 36 | 253 | 1.6 | 11.3 | 0.00 | 0.00 | 0.00 | 10 | 1010.1 |
| 20260510180039 | 36 | 202 | 1.6 | 11.3 | 0.00 | 0.00 | 0.00 | 11 | 1010.2 |
| 20260510175522 | 36 | 254 | 3.2 | 9.7 | 0.00 | 0.00 | 0.00 | 11 | 1010.1 |
| 20260510175022 | 35 | 309 | 1.6 | 8.0 | 0.00 | 0.00 | 0.00 | 11 | 1010.2 |
| 20260510174538 | 35 | 221 | 1.6 | 9.7 | 0.00 | 0.00 | 0.00 | 11 | 1010.2 |
| 20260510174026 | 35 | 179 | 1.6 | 9.7 | 0.00 | 0.00 | 0.00 | 11 | 1010.1 |
| 20260510173525 | 35 | 304 | 1.6 | 11.3 | 0.00 | 0.00 | 0.00 | 12 | 1010.2 |
| 20260510173045 | 35 | 211 | 0.0 | 11.3 | 0.00 | 0.00 | 0.00 | 10 | 1010.1 |
| 20260510172525 | 35 | 277 | 1.6 | 8.0 | 0.00 | 0.00 | 0.00 | 11 | 1010.1 |
| 20260510172023 | 35 | 260 | 0.0 | 9.7 | 0.00 | 0.00 | 0.00 | 12 | 1010.0 |
| 20260510171540 | 35 | 0 | 0.0 | 9.7 | 0.00 | 0.00 | 0.00 | 12 | 1010.0 |
| 20260510171024 | 34 | 146 | 3.2 | 9.7 | 0.00 | 0.00 | 0.00 | 12 | 1010.1 |
| 20260510170522 | 34 | 178 | 0.0 | 6.4 | 0.00 | 0.00 | 0.00 | 12 | 1010.0 |
| 20260510170044 | 33 | 0 | 0.0 | 6.4 | 0.00 | 0.00 | 0.00 | 13 | 1010.0 |
| 20260510165523 | 33 | 302 | 0.0 | 6.4 | 0.00 | 0.00 | 0.00 | 13 | 1009.9 |
| 20260510165023 | 33 | 351 | 1.6 | 6.4 | 0.00 | 0.00 | 0.00 | 13 | 1009.9 |
| 20260510164540 | 33 | 0 | 1.6 | 4.8 | 0.00 | 0.00 | 0.00 | 13 | 1009.9 |
| 20260510164024 | 33 | 63 | 1.6 | 8.0 | 0.00 | 0.00 | 0.00 | 14 | 1009.9 |
| 20260510163529 | 33 | 337 | 1.6 | 8.0 | 0.00 | 0.00 | 0.00 | 13 | 1009.7 |
| 20260510163047 | 33 | 0 | 0.0 | 3.2 | 0.00 | 0.00 | 0.00 | 14 | 1009.8 |
| 20260510162526 | 33 | 0 | 0.0 | 4.8 | 0.00 | 0.00 | 0.00 | 14 | 1009.8 |
| 20260510162022 | 32 | 83 | 1.6 | 4.8 | 0.00 | 0.00 | 0.00 | 14 | 1009.8 |
| 20260510161536 | 32 | 111 | 0.0 | 8.0 | 0.00 | 0.00 | 0.00 | 14 | 1009.8 |
| 20260510161025 | 32 | 154 | 0.0 | 8.0 | 0.00 | 0.00 | 0.00 | 14 | 1009.7 |
| 20260510160525 | 32 | 153 | 0.0 | 6.4 | 0.00 | 0.00 | 0.00 | 15 | 1009.7 |
| 20260510160044 | 32 | 0 | 0.0 | 3.2 | 0.00 | 0.00 | 0.00 | 15 | 1009.7 |
| 20260510155528 | 31 | 0 | 0.0 | 4.8 | 0.00 | 0.00 | 0.00 | 15 | 1009.7 |
| 20260510155025 | 31 | 120 | 0.0 | 6.4 | 0.00 | 0.00 | 0.00 | 16 | 1009.7 |
| 20260510154540 | 30 | 0 | 1.6 | 6.4 | 0.00 | 0.00 | 0.00 | 17 | 1009.6 |
| 20260510154025 | 30 | 167 | 1.6 | 4.8 | 0.00 | 0.00 | 0.00 | 18 | 1009.6 |
| 20260510153526 | 30 | 152 | 0.0 | 4.8 | 0.00 | 0.00 | 0.00 | 18 | 1009.6 |
| 20260510153038 | 29 | 152 | 0.0 | 4.8 | 0.00 | 0.00 | 0.00 | 18 | 1009.5 |
| 20260510152525 | 29 | 152 | 1.6 | 6.4 | 0.00 | 0.00 | 0.00 | 19 | 1009.5 |
| 20260510152023 | 28 | 173 | 1.6 | 8.0 | 0.00 | 0.00 | 0.00 | 19 | 1009.6 |
| 20260510151541 | 28 | 200 | 1.6 | 8.0 | 0.00 | 0.00 | 0.00 | 19 | 1009.6 |
| 20260510151023 | 27 | 149 | 1.6 | 11.3 | 0.00 | 0.00 | 0.00 | 20 | 1009.6 |
| 20260510150525 | 27 | 154 | 1.6 | 11.3 | 0.00 | 0.00 | 0.00 | 20 | 1009.5 |
| 20260510150042 | 27 | 144 | 3.2 | 11.3 | 0.00 | 0.00 | 0.00 | 20 | 1009.6 |
| 20260510145525 | 27 | 165 | 4.8 | 11.3 | 0.00 | 0.00 | 0.00 | 20 | 1009.5 |
| 20260510145027 | 26 | 128 | 3.2 | 9.7 | 0.00 | 0.00 | 0.00 | 21 | 1009.5 |
| 20260510144558 | 26 | 163 | 3.2 | 11.3 | 0.00 | 0.00 | 0.00 | 21 | 1009.6 |
| 20260510144025 | 26 | 162 | 1.6 | 11.3 | 0.00 | 0.00 | 0.00 | 21 | 1009.5 |
| 20260510143524 | 26 | 0 | 0.0 | 6.4 | 0.00 | 0.00 | 0.00 | 22 | 1009.6 |
| 20260510143039 | 26 | 88 | 1.6 | 9.7 | 0.00 | 0.00 | 0.00 | 22 | 1009.4 |
| 20260510142522 | 25 | 85 | 1.6 | 9.7 | 0.00 | 0.00 | 0.00 | 23 | 1009.5 |
| 20260510142023 | 25 | 115 | 1.6 | 9.7 | 0.00 | 0.00 | 0.00 | 22 | 1009.6 |
| 20260510141539 | 25 | 72 | 3.2 | 8.0 | 0.00 | 0.00 | 0.00 | 22 | 1009.4 |
| 20260510141023 | 25 | 88 | 0.0 | 4.8 | 0.00 | 0.00 | 0.00 | 23 | 1009.5 |
| 20260510140523 | 24 | 109 | 1.6 | 4.8 | 0.00 | 0.00 | 0.00 | 23 | 1009.4 |
| 20260510140038 | 23 | 96 | 1.6 | 6.4 | 0.00 | 0.00 | 0.00 | 24 | 1009.4 |
| 20260510135525 | 23 | 96 | 1.6 | 6.4 | 0.00 | 0.00 | 0.00 | 25 | 1009.2 |
| 20260510135025 | 23 | 94 | 1.6 | 9.7 | 0.00 | 0.00 | 0.00 | 25 | 1009.2 |
| 20260510134558 | 22 | 0 | 1.6 | 9.7 | 0.00 | 0.00 | 0.00 | 25 | 1009.1 |
| 20260510134025 | 22 | 128 | 1.6 | 9.7 | 0.00 | 0.00 | 0.00 | 25 | 1009.0 |
| 20260510133526 | 22 | 67 | 3.2 | 9.7 | 0.00 | 0.00 | 0.00 | 26 | 1009.2 |
| 20260510133040 | 21 | 76 | 3.2 | 9.7 | 0.00 | 0.00 | 0.00 | 25 | 1009.0 |
| 20260510132524 | 21 | 123 | 3.2 | 9.7 | 0.00 | 0.00 | 0.00 | 26 | 1008.9 |
| 20260510132025 | 21 | 158 | 3.2 | 9.7 | 0.00 | 0.00 | 0.00 | 26 | 1008.8 |
| 20260510131540 | 21 | 114 | 3.2 | 9.7 | 0.00 | 0.00 | 0.00 | 27 | 1008.7 |
| 20260510131025 | 20 | 109 | 1.6 | 9.7 | 0.00 | 0.00 | 0.00 | 28 | 1008.6 |
| 20260510130524 | 20 | 93 | 3.2 | 9.7 | 0.00 | 0.00 | 0.00 | 27 | 1008.6 |
| 20260510130040 | 20 | 77 | 3.2 | 6.4 | 0.00 | 0.00 | 0.00 | 29 | 1008.5 |
| 20260510125524 | 20 | 0 | 1.6 | 4.8 | 0.00 | 0.00 | 0.00 | 30 | 1008.3 |
| 20260510125028 | 20 | 111 | 0.0 | 4.8 | 0.00 | 0.00 | 0.00 | 30 | 1008.3 |
| 20260510124544 | 20 | 111 | 0.0 | 4.8 | 0.00 | 0.00 | 0.00 | 30 | 1008.3 |
| 20260510124025 | 20 | 111 | 1.6 | 4.8 | 0.00 | 0.00 | 0.00 | 30 | 1008.2 |
| 20260510123524 | 20 | 116 | 1.6 | 4.8 | 0.00 | 0.00 | 0.00 | 30 | 1008.2 |
| 20260510123045 | 20 | 142 | 0.0 | 4.8 | 0.00 | 0.00 | 0.00 | 29 | 1008.2 |
| 20260510122525 | 20 | 142 | 1.6 | 4.8 | 0.00 | 0.00 | 0.00 | 29 | 1008.2 |
| 20260510122024 | 20 | 152 | 0.0 | 4.8 | 0.00 | 0.00 | 0.00 | 29 | 1008.1 |
| 20260510121540 | 20 | 0 | 1.6 | 4.8 | 0.00 | 0.00 | 0.00 | 28 | 1008.1 |
| 20260510121024 | 20 | 0 | 1.6 | 4.8 | 0.00 | 0.00 | 0.00 | 28 | 1008.0 |
| 20260510120527 | 20 | 108 | 3.2 | 4.8 | 0.00 | 0.00 | 0.00 | 28 | 1008.0 |
| 20260510120041 | 20 | 139 | 0.0 | 4.8 | 0.00 | 0.00 | 0.00 | 28 | 1008.0 |
| 20260510115523 | 20 | 139 | 1.6 | 4.8 | 0.00 | 0.00 | 0.00 | 28 | 1008.1 |
| 20260510115027 | 21 | 139 | 0.0 | 4.8 | 0.00 | 0.00 | 0.00 | 28 | 1008.1 |
| 20260510114540 | 21 | 139 | 1.6 | 4.8 | 0.00 | 0.00 | 0.00 | 28 | 1008.0 |
| 20260510114025 | 21 | 114 | 1.6 | 4.8 | 0.00 | 0.00 | 0.00 | 28 | 1007.9 |
| 20260510113524 | 21 | 109 | 1.6 | 4.8 | 0.00 | 0.00 | 0.00 | 28 | 1008.0 |
| 20260510113038 | 21 | 122 | 1.6 | 4.8 | 0.00 | 0.00 | 0.00 | 28 | 1008.0 |
| 20260510112524 | 21 | 122 | 1.6 | 3.2 | 0.00 | 0.00 | 0.00 | 28 | 1008.1 |
| 20260510112023 | 21 | 122 | 1.6 | 3.2 | 0.00 | 0.00 | 0.00 | 28 | 1008.1 |
| 20260510111553 | 21 | 122 | 0.0 | 3.2 | 0.00 | 0.00 | 0.00 | 27 | 1008.1 |
| 20260510111024 | 22 | 0 | 0.0 | 3.2 | 0.00 | 0.00 | 0.00 | 26 | 1008.0 |
| 20260510110524 | 22 | 0 | 0.0 | 3.2 | 0.00 | 0.00 | 0.00 | 26 | 1007.9 |
| 20260510110041 | 22 | 0 | 1.6 | 8.0 | 0.00 | 0.00 | 0.00 | 25 | 1007.8 |
| 20260510105524 | 22 | 122 | 1.6 | 8.0 | 0.00 | 0.00 | 0.00 | 25 | 1007.7 |
| 20260510105024 | 22 | 155 | 3.2 | 8.0 | 0.00 | 0.00 | 0.00 | 24 | 1007.6 |
| 20260510104549 | 23 | 168 | 3.2 | 8.0 | 0.00 | 0.00 | 0.00 | 24 | 1007.6 |
| 20260510104024 | 23 | 157 | 4.8 | 8.0 | 0.00 | 0.00 | 0.00 | 24 | 1007.7 |
| 20260510103524 | 23 | 148 | 3.2 | 6.4 | 0.00 | 0.00 | 0.00 | 23 | 1007.6 |
| 20260510103043 | 23 | 147 | 1.6 | 8.0 | 0.00 | 0.00 | 0.00 | 23 | 1007.6 |
| 20260510102524 | 23 | 148 | 3.2 | 8.0 | 0.00 | 0.00 | 0.00 | 22 | 1007.5 |
| 20260510102026 | 24 | 158 | 1.6 | 8.0 | 0.00 | 0.00 | 0.00 | 22 | 1007.4 |
| 20260510101539 | 24 | 150 | 3.2 | 8.0 | 0.00 | 0.00 | 0.00 | 22 | 1007.4 |
| 20260510101024 | 24 | 178 | 1.6 | 8.0 | 0.00 | 0.00 | 0.00 | 21 | 1007.4 |
| 20260510100524 | 24 | 232 | 1.6 | 11.3 | 0.00 | 0.00 | 0.00 | 21 | 1007.4 |
| 20260510100035 | 24 | 143 | 3.2 | 11.3 | 0.00 | 0.00 | 0.00 | 21 | 1007.3 |
| 20260510095524 | 24 | 155 | 3.2 | 11.3 | 0.00 | 0.00 | 0.00 | 21 | 1007.3 |
| 20260510095024 | 25 | 153 | 4.8 | 12.9 | 0.00 | 0.00 | 0.00 | 21 | 1007.3 |
| 20260510094542 | 25 | 148 | 3.2 | 14.5 | 0.00 | 0.00 | 0.00 | 21 | 1007.3 |
| 20260510094024 | 25 | 154 | 8.0 | 14.5 | 0.00 | 0.00 | 0.00 | 21 | 1007.3 |
| 20260510093524 | 24 | 143 | 6.4 | 12.9 | 0.00 | 0.00 | 0.00 | 21 | 1007.2 |
| 20260510093040 | 23 | 142 | 4.8 | 9.7 | 0.00 | 0.00 | 0.00 | 22 | 1007.3 |
| 20260510092524 | 23 | 157 | 3.2 | 11.3 | 0.00 | 0.00 | 0.00 | 23 | 1007.2 |
| 20260510092024 | 23 | 148 | 4.8 | 14.5 | 0.00 | 0.00 | 0.00 | 23 | 1007.2 |
| 20260510091539 | 23 | 147 | 4.8 | 14.5 | 0.00 | 0.00 | 0.00 | 23 | 1007.2 |
| 20260510091024 | 23 | 163 | 8.0 | 14.5 | 0.00 | 0.00 | 0.00 | 24 | 1007.2 |
| 20260510090523 | 23 | 140 | 3.2 | 8.0 | 0.00 | 0.00 | 0.00 | 24 | 1007.2 |
| 20260510090039 | 23 | 149 | 1.6 | 6.4 | 0.00 | 0.00 | 0.00 | 24 | 1007.1 |
| 20260510085523 | 23 | 98 | 1.6 | 6.4 | 0.00 | 0.00 | 0.00 | 24 | 1007.0 |
| 20260510085024 | 23 | 126 | 1.6 | 6.4 | 0.00 | 0.00 | 0.00 | 24 | 1007.0 |
| 20260510084539 | 23 | 161 | 3.2 | 8.0 | 0.00 | 0.00 | 0.00 | 24 | 1007.0 |
| 20260510084100 | 23 | 159 | 3.2 | 9.7 | 0.00 | 0.00 | 0.00 | 25 | 1007.0 |
| 20260510083529 | 23 | 127 | 3.2 | 9.7 | 0.00 | 0.00 | 0.00 | 26 | 1007.0 |
| 20260510083041 | 23 | 142 | 1.6 | 6.4 | 0.00 | 0.00 | 0.00 | 26 | 1007.0 |
| 20260510082525 | 23 | 117 | 0.0 | 0.0 | 0.00 | 0.00 | 0.00 | 26 | 1007.0 |
| 20260510082024 | 23 | 0 | 0.0 | 0.0 | 0.00 | 0.00 | 0.00 | 26 | 1007.1 |
| 20260510081543 | 23 | 0 | 0.0 | 0.0 | 0.00 | 0.00 | 0.00 | 27 | 1007.1 |
| 20260510081024 | 23 | 0 | 0.0 | 0.0 | 0.00 | 0.00 | 0.00 | 27 | 1007.1 |
| 20260510080523 | 23 | 0 | 0.0 | 1.6 | 0.00 | 0.00 | 0.00 | 28 | 1007.0 |
| 20260510080039 | 23 | 0 | 0.0 | 3.2 | 0.00 | 0.00 | 0.00 | 28 | 1007.0 |
| 20260510075525 | 23 | 0 | 0.0 | 3.2 | 0.00 | 0.00 | 0.00 | 29 | 1007.1 |
| 20260510075023 | 24 | 123 | 0.0 | 4.8 | 0.00 | 0.00 | 0.00 | 28 | 1007.1 |
| 20260510074541 | 24 | 123 | 1.6 | 4.8 | 0.00 | 0.00 | 0.00 | 28 | 1007.0 |
| 20260510074023 | 24 | 205 | 0.0 | 3.2 | 0.00 | 0.00 | 0.00 | 28 | 1007.0 |
| 20260510073525 | 24 | 205 | 0.0 | 4.8 | 0.00 | 0.00 | 0.00 | 27 | 1007.0 |
| 20260510073038 | 24 | 205 | 1.6 | 4.8 | 0.00 | 0.00 | 0.00 | 28 | 1006.9 |
| 20260510072524 | 24 | 0 | 0.0 | 0.0 | 0.00 | 0.00 | 0.00 | 27 | 1006.9 |
| 20260510072024 | 24 | 0 | 0.0 | 0.0 | 0.00 | 0.00 | 0.00 | 28 | 1006.8 |
| 20260510071543 | 25 | 0 | 0.0 | 1.6 | 0.00 | 0.00 | 0.00 | 28 | 1006.9 |
| 20260510071024 | 25 | 0 | 0.0 | 1.6 | 0.00 | 0.00 | 0.00 | 27 | 1006.9 |
| 20260510070527 | 25 | 0 | 0.0 | 1.6 | 0.00 | 0.00 | 0.00 | 27 | 1006.9 |
| 20260510070042 | 25 | 205 | 0.0 | 3.2 | 0.00 | 0.00 | 0.00 | 27 | 1006.9 |
| 20260510065524 | 25 | 205 | 0.0 | 3.2 | 0.00 | 0.00 | 0.00 | 27 | 1006.9 |
| 20260510065023 | 25 | 0 | 0.0 | 3.2 | 0.00 | 0.00 | 0.00 | 26 | 1006.8 |
| 20260510064538 | 25 | 205 | 0.0 | 1.6 | 0.00 | 0.00 | 0.00 | 26 | 1006.8 |
| 20260510064025 | 25 | 0 | 0.0 | 4.8 | 0.00 | 0.00 | 0.00 | 26 | 1006.8 |
| 20260510063525 | 26 | 0 | 0.0 | 4.8 | 0.00 | 0.00 | 0.00 | 24 | 1006.8 |
| 20260510063040 | 26 | 0 | 0.0 | 3.2 | 0.00 | 0.00 | 0.00 | 25 | 1006.8 |
| 20260510062522 | 26 | 0 | 0.0 | 3.2 | 0.00 | 0.00 | 0.00 | 24 | 1006.6 |
| 20260510062025 | 26 | 0 | 0.0 | 6.4 | 0.00 | 0.00 | 0.00 | 24 | 1006.6 |
| 20260510061540 | 26 | 0 | 0.0 | 6.4 | 0.00 | 0.00 | 0.00 | 23 | 1006.6 |
| 20260510061025 | 26 | 201 | 0.0 | 4.8 | 0.00 | 0.00 | 0.00 | 24 | 1006.8 |
| 20260510060526 | 26 | 187 | 0.0 | 4.8 | 0.00 | 0.00 | 0.00 | 23 | 1006.8 |
| 20260510060050 | 27 | 0 | 0.0 | 0.0 | 0.00 | 0.00 | 0.00 | 23 | 1006.6 |
| 20260510055522 | 27 | 0 | 0.0 | 0.0 | 0.00 | 0.00 | 0.00 | 23 | 1006.6 |
| 20260510055024 | 27 | 0 | 0.0 | 0.0 | 0.00 | 0.00 | 0.00 | 22 | 1006.5 |
| 20260510054539 | 27 | 0 | 0.0 | 0.0 | 0.00 | 0.00 | 0.00 | 21 | 1006.5 |
| 20260510054023 | 28 | 0 | 0.0 | 1.6 | 0.00 | 0.00 | 0.00 | 22 | 1006.5 |
| 20260510053522 | 28 | 0 | 0.0 | 3.2 | 0.00 | 0.00 | 0.00 | 20 | 1006.4 |
| 20260510053038 | 28 | 0 | 0.0 | 3.2 | 0.00 | 0.00 | 0.00 | 19 | 1006.2 |
| 20260510052522 | 28 | 251 | 0.0 | 3.2 | 0.00 | 0.00 | 0.00 | 19 | 1006.2 |
| 20260510052025 | 28 | 251 | 1.6 | 3.2 | 0.00 | 0.00 | 0.00 | 19 | 1006.3 |
| 20260510051557 | 28 | 242 | 1.6 | 3.2 | 0.00 | 0.00 | 0.00 | 19 | 1006.6 |
| 20260510051025 | 29 | 240 | 0.0 | 3.2 | 0.00 | 0.00 | 0.00 | 19 | 1006.5 |
| 20260510050525 | 29 | 240 | 1.6 | 3.2 | 0.00 | 0.00 | 0.00 | 18 | 1006.4 |
| 20260510050043 | 29 | 254 | 1.6 | 4.8 | 0.00 | 0.00 | 0.00 | 19 | 1006.4 |
| 20260510045529 | 29 | 242 | 1.6 | 4.8 | 0.00 | 0.00 | 0.00 | 18 | 1006.3 |
| 20260510045025 | 29 | 254 | 0.0 | 3.2 | 0.00 | 0.00 | 0.00 | 19 | 1006.2 |
| 20260510044542 | 30 | 0 | 0.0 | 3.2 | 0.00 | 0.00 | 0.00 | 18 | 1006.2 |
| 20260510044027 | 30 | 254 | 0.0 | 3.2 | 0.00 | 0.00 | 0.00 | 18 | 1006.2 |
| 20260510043523 | 30 | 254 | 0.0 | 3.2 | 0.00 | 0.00 | 0.00 | 19 | 1006.2 |
| 20260510043057 | 30 | 0 | 0.0 | 3.2 | 0.00 | 0.00 | 0.00 | 17 | 1006.0 |
| 20260510042523 | 30 | 254 | 0.0 | 3.2 | 0.00 | 0.00 | 0.00 | 17 | 1006.2 |
| 20260510042025 | 30 | 254 | 0.0 | 3.2 | 0.00 | 0.00 | 0.00 | 17 | 1006.1 |
| 20260510041539 | 31 | 254 | 0.0 | 3.2 | 0.00 | 0.00 | 0.00 | 16 | 1006.0 |
| 20260510041022 | 31 | 256 | 0.0 | 3.2 | 0.00 | 0.00 | 0.00 | 16 | 1006.0 |
| 20260510040525 | 31 | 256 | 0.0 | 3.2 | 0.00 | 0.00 | 0.00 | 16 | 1006.0 |
| 20260510040039 | 31 | 256 | 1.6 | 3.2 | 0.00 | 0.00 | 0.00 | 15 | 1005.9 |
| 20260510035524 | 31 | 257 | 0.0 | 3.2 | 0.00 | 0.00 | 0.00 | 15 | 1005.9 |
| 20260510035027 | 32 | 0 | 0.0 | 3.2 | 0.00 | 0.00 | 0.00 | 15 | 1005.9 |
| 20260510034545 | 32 | 0 | 0.0 | 3.2 | 0.00 | 0.00 | 0.00 | 14 | 1005.7 |
| 20260510034024 | 32 | 258 | 1.6 | 3.2 | 0.00 | 0.00 | 0.00 | 14 | 1005.8 |
| 20260510033523 | 32 | 266 | 0.0 | 6.4 | 0.00 | 0.00 | 0.00 | 13 | 1005.6 |
| 20260510033041 | 33 | 0 | 0.0 | 6.4 | 0.00 | 0.00 | 0.00 | 13 | 1005.6 |
| 20260510032527 | 33 | 262 | 1.6 | 6.4 | 0.00 | 0.00 | 0.00 | 13 | 1005.6 |
| 20260510032024 | 33 | 302 | 3.2 | 6.4 | 0.00 | 0.00 | 0.00 | 13 | 1005.5 |
| 20260510031607 | 33 | 294 | 1.6 | 4.8 | 0.00 | 0.00 | 0.00 | 13 | 1005.4 |
| 20260510031023 | 33 | 300 | 1.6 | 4.8 | 0.00 | 0.00 | 0.00 | 13 | 1005.3 |
| 20260510030524 | 33 | 296 | 1.6 | 4.8 | 0.00 | 0.00 | 0.00 | 12 | 1005.2 |
| 20260510030040 | 33 | 288 | 1.6 | 4.8 | 0.00 | 0.00 | 0.00 | 12 | 1005.3 |
| 20260510025524 | 34 | 266 | 1.6 | 6.4 | 0.00 | 0.00 | 0.00 | 12 | 1005.2 |
| 20260510025027 | 34 | 281 | 1.6 | 6.4 | 0.00 | 0.00 | 0.00 | 12 | 1005.2 |
| 20260510024537 | 34 | 273 | 1.6 | 6.4 | 0.00 | 0.00 | 0.00 | 12 | 1005.1 |
| 20260510024024 | 35 | 284 | 1.6 | 12.9 | 0.00 | 0.00 | 0.00 | 12 | 1005.1 |
| 20260510023524 | 35 | 298 | 3.2 | 12.9 | 0.00 | 0.00 | 0.00 | 12 | 1005.0 |
| 20260510023047 | 35 | 0 | 3.2 | 9.7 | 0.00 | 0.00 | 0.00 | 11 | 1005.0 |
| 20260510022524 | 35 | 307 | 3.2 | 9.7 | 0.00 | 0.00 | 0.00 | 11 | 1004.9 |
| 20260510022024 | 35 | 309 | 3.2 | 14.5 | 0.00 | 0.00 | 0.00 | 11 | 1004.9 |
| 20260510021543 | 35 | 306 | 3.2 | 14.5 | 0.00 | 0.00 | 0.00 | 11 | 1004.9 |
| 20260510021023 | 36 | 284 | 4.8 | 14.5 | 0.00 | 0.00 | 0.00 | 11 | 1004.8 |
| 20260510020523 | 36 | 275 | 3.2 | 14.5 | 0.00 | 0.00 | 0.00 | 11 | 1004.7 |
| 20260510020039 | 36 | 296 | 4.8 | 14.5 | 0.00 | 0.00 | 0.00 | 11 | 1004.6 |
| 20260510015524 | 36 | 292 | 4.8 | 14.5 | 0.00 | 0.00 | 0.00 | 11 | 1004.6 |
| 20260510015024 | 36 | 281 | 4.8 | 14.5 | 0.00 | 0.00 | 0.00 | 10 | 1004.6 |
| 20260510014535 | 36 | 235 | 4.8 | 14.5 | 0.00 | 0.00 | 0.00 | 10 | 1004.6 |
| 20260510014023 | 37 | 238 | 4.8 | 16.1 | 0.00 | 0.00 | 0.00 | 10 | 1004.6 |
| 20260510013525 | 37 | 209 | 6.4 | 16.1 | 0.00 | 0.00 | 0.00 | 10 | 1004.5 |
| 20260510013042 | 37 | 261 | 4.8 | 16.1 | 0.00 | 0.00 | 0.00 | 10 | 1004.6 |
| 20260510012527 | 37 | 296 | 4.8 | 19.3 | 0.00 | 0.00 | 0.00 | 10 | 1004.6 |
| 20260510012024 | 37 | 307 | 4.8 | 19.3 | 0.00 | 0.00 | 0.00 | 10 | 1004.7 |
| 20260510011553 | 37 | 288 | 8.0 | 19.3 | 0.00 | 0.00 | 0.00 | 10 | 1004.7 |
| 20260510011027 | 37 | 300 | 4.8 | 17.7 | 0.00 | 0.00 | 0.00 | 10 | 1004.6 |
| 20260510010523 | 37 | 313 | 6.4 | 17.7 | 0.00 | 0.00 | 0.00 | 10 | 1004.6 |
| 20260510010049 | 37 | 272 | 8.0 | 17.7 | 0.00 | 0.00 | 0.00 | 10 | 1004.6 |
| 20260510005524 | 37 | 275 | 4.8 | 16.1 | 0.00 | 0.00 | 0.00 | 10 | 1004.6 |
| 20260510005025 | 37 | 0 | 8.0 | 17.7 | 0.00 | 0.00 | 0.00 | 10 | 1004.7 |
| 20260510004539 | 37 | 309 | 6.4 | 17.7 | 0.00 | 0.00 | 0.00 | 10 | 1004.7 |
| 20260510004027 | 37 | 324 | 4.8 | 17.7 | 0.00 | 0.00 | 0.00 | 9 | 1004.7 |
| 20260510003524 | 37 | 273 | 3.2 | 17.7 | 0.00 | 0.00 | 0.00 | 9 | 1004.6 |
| 20260510003041 | 37 | 297 | 6.4 | 20.9 | 0.00 | 0.00 | 0.00 | 9 | 1004.7 |
| 20260510002523 | 38 | 295 | 4.8 | 20.9 | 0.00 | 0.00 | 0.00 | 9 | 1004.7 |
| 20260510002027 | 37 | 283 | 8.0 | 17.7 | 0.00 | 0.00 | 0.00 | 9 | 1004.8 |
| 20260510001540 | 37 | 258 | 1.6 | 19.3 | 0.00 | 0.00 | 0.00 | 9 | 1004.8 |
| 20260510001024 | 38 | 304 | 6.4 | 19.3 | 0.00 | 0.00 | 0.00 | 8 | 1004.7 |
| 20260510000524 | 38 | 269 | 6.4 | 17.7 | 0.00 | 0.00 | 0.00 | 9 | 1004.8 |
| 20260510000042 | 38 | 275 | 6.4 | 20.9 | 0.00 | 0.00 | 0.00 | 9 | 1004.7 |
| 20260509235522 | 38 | 238 | 4.8 | 20.9 | 0.00 | 0.00 | 0.00 | 9 | 1004.8 |
| 20260509235022 | 38 | 207 | 6.4 | 16.1 | 0.00 | 0.00 | 0.00 | 9 | 1004.8 |
| 20260509234538 | 38 | 252 | 4.8 | 25.7 | 0.00 | 0.00 | 0.00 | 9 | 1004.8 |
| 20260509234029 | 38 | 304 | 8.0 | 25.7 | 0.00 | 0.00 | 0.00 | 9 | 1004.9 |
| 20260509233525 | 38 | 298 | 4.8 | 16.1 | 0.00 | 0.00 | 0.00 | 10 | 1005.0 |
| 20260509233043 | 38 | 336 | 3.2 | 16.1 | 0.00 | 0.00 | 0.00 | 9 | 1005.0 |
| 20260509232524 | 38 | 283 | 3.2 | 12.9 | 0.00 | 0.00 | 0.00 | 10 | 1005.1 |
| 20260509232024 | 38 | 337 | 3.2 | 17.7 | 0.00 | 0.00 | 0.00 | 9 | 1005.1 |
| 20260509231544 | 38 | 209 | 6.4 | 17.7 | 0.00 | 0.00 | 0.00 | 9 | 1005.1 |
| 20260509231024 | 38 | 273 | 6.4 | 17.7 | 0.00 | 0.00 | 0.00 | 9 | 1005.1 |
| 20260509230522 | 38 | 244 | 4.8 | 16.1 | 0.00 | 0.00 | 0.00 | 9 | 1005.1 |
| 20260509230050 | 38 | 298 | 6.4 | 16.1 | 0.00 | 0.00 | 0.00 | 10 | 1005.2 |
| 20260509225526 | 38 | 319 | 4.8 | 14.5 | 0.00 | 0.00 | 0.00 | 11 | 1005.3 |
| 20260509225025 | 38 | 327 | 4.8 | 14.5 | 0.00 | 0.00 | 0.00 | 11 | 1005.2 |
| 20260509224535 | 38 | 340 | 4.8 | 14.5 | 0.00 | 0.00 | 0.00 | 11 | 1005.3 |
| 20260509224025 | 38 | 299 | 4.8 | 20.9 | 0.00 | 0.00 | 0.00 | 10 | 1005.4 |
| 20260509223524 | 38 | 352 | 9.7 | 20.9 | 0.00 | 0.00 | 0.00 | 10 | 1005.5 |
| 20260509223039 | 38 | 309 | 6.4 | 16.1 | 0.00 | 0.00 | 0.00 | 10 | 1005.5 |
| 20260509222523 | 38 | 338 | 3.2 | 14.5 | 0.00 | 0.00 | 0.00 | 10 | 1005.6 |
| 20260509222023 | 38 | 0 | 4.8 | 14.5 | 0.00 | 0.00 | 0.00 | 10 | 1005.7 |
| 20260509221540 | 38 | 324 | 6.4 | 14.5 | 0.00 | 0.00 | 0.00 | 10 | 1005.9 |